Regional Weather Roundup
Issued by NWS

Home | Current Version | Previous Version | Text Only | Print | Product List | Glossary Off
Versions: 1 2 3 4 5 6 7 8 9 10 11 12 13 14 15 16 17 18 19 20 21 22 23 24 25 26 27 28

665
ASUS45 KTFX 151710
RWRMT
MONTANA REGIONAL WEATHER ROUNDUP
NATIONAL WEATHER SERVICE GREAT FALLS MT
1000 AM MST SUN JAN 15 2017

NOTE: "FAIR" INDICATES FEW OR NO CLOUDS BELOW 12000 FEET WITH NO
SIGNIFICANT WEATHER AND/OR OBSTRUCTIONS TO VISIBILITY.

MTZ001>007-043-151800-
WEST OF THE DIVIDE

CITY           SKY/WX    TMP DP  RH WIND       PRES   REMARKS
KALISPELL      LGT SNOW  14  10  84 NE5       30.31S
MISSOULA       PTSUNNY   -9 -11  91 CALM      30.37S FOG
BUTTE          CLOUDY    -5 -10  79 CALM      30.16F
MULLAN PASS    PTSUNNY   21   6  52 SW6       30.10S WCI  13
ANACONDA         N/A      7  -2  66 CALM      30.18F
DEER LODGE       N/A     -4  -9  77 CALM      30.24S
EUREKA           N/A     12   7  79 SE8       30.34S WCI   1
HAMILTON         N/A      1  -6  71 CALM      30.31S
RONAN            N/A      1  -5  76 MISG      30.30S VSB 0
$$

MTZ008-052>055-151800-
SOUTHWEST MONTANA

CITY           SKY/WX    TMP DP  RH WIND       PRES   REMARKS
BOZEMAN        SUNNY     -3  -8  79 CALM      30.20F
DILLON         CLOUDY     8  -7  50 S15       30.17F WCI  -9
W YELLOWSTONE  CLOUDY   -11 -17  77 E3        30.21S HAZE
ENNIS          SUNNY      7   0  72 S7        30.21S WCI  -5
TWIN BRIDGES     N/A     -1 -13  56 SE6       30.16F WCI -13
$$

MTZ009-010-012-014-046-048-049-054-151800-
EAST SLOPES AND CENTRAL MONTANA

CITY           SKY/WX    TMP DP  RH WIND       PRES   REMARKS
CUT BANK       MOSUNNY   32  13  45 W24       29.96S WCI  19
GREAT FALLS    CLOUDY    28  11  48 SW23      30.03R WCI  14
MALMSTROM AFB  CLOUDY    27  15  61 SW25      30.03F WCI  11
HELENA         CLOUDY    -5  -6  96 CALM      30.23S FOG
AUGUSTA          N/A     27  10  49 SW13      30.00S WCI  16
BOWMANS CRNR     N/A     19   6  58 S24       30.03R WCI   1
CHOTEAU          N/A     37  10  32 SW10      30.01S WCI  30
CONRAD           N/A     36  18  48 W16       29.97S WCI  26
FAIRFIELD        N/A     24  10  54 S23G30    30.01S WCI   8
POWER            N/A     24  12  61 SW10      30.02R WCI  13
RAYNESFORD       N/A     34   9  34 SW23      30.02R WCI  22
ULM              N/A     25   6  44 MISG      30.06R
$$

MTZ011-013-016-021-045-047-050-051-151800-
NORTH CENTRAL MONTANA

CITY           SKY/WX    TMP DP  RH WIND       PRES   REMARKS
HAVRE          CLOUDY    20  10  65 W9        30.00S WCI   9
LEWISTOWN      CLOUDY    19   6  57 SE6       30.01F WCI  11
N BAR RANCH      N/A     30  10  43 SW10      30.01F WCI  21
CHINOOK          N/A      1  -6  71 E6        30.02S WCI -10
DENTON           N/A     19   9  63 SW9       29.98R WCI   9
FORT BENTON      N/A     28  14  54 MISG      30.04S
GEYSER           N/A     29  14  53 SW8       30.00R WCI  21
GRASS RANGE      N/A     33  11  40 W5        29.97S
JUDITH GAP       N/A     24   9  52 W16       30.00F WCI  11
ROY              N/A     31  14  50 MISG      29.98S
STANFORD         N/A     31  13  48 W3        29.99F
WINIFRED         N/A     33  12  41 W9        29.99S WCI  26
$$

MTZ017>020-022>027-061-062-151800-
NORTHEAST MONTANA

CITY           SKY/WX    TMP DP  RH WIND       PRES   REMARKS
GLASGOW        CLOUDY     1  -4  79 S5        30.03F
JORDAN           N/A     19   7  59 NW6       30.03F WCI  11
SIDNEY         CLOUDY     7   0  73 S12       30.07F WCI  -8
WOLF POINT     CLOUDY    -4  -9  79 SW5       30.06F
PLENTYWOOD       N/A      3  -2  78 SE10      29.99F WCI -12
POPLAR           N/A     -2  -9  71 W8        30.06F WCI -17
SCOBEY           N/A      7  -6  55 S9        29.96F WCI  -6
$$

MTZ028>42-056>058-151800-
SOUTHCENTRAL AND SOUTHEAST MONTANA

CITY           SKY/WX    TMP DP  RH WIND       PRES   REMARKS
BAKER          CLOUDY    21   9  59 W6        30.09R WCI  13
BILLINGS       CLOUDY    19   4  51 SW22      30.07F WCI   2
LIVINGSTON     CLOUDY    24   8  50 W21       30.10F WCI   9
MILES CITY     CLOUDY     3  -5  69 S8        30.11R WCI -10
BIG TIMBER     SUNNY     28   9  43 W33G39    30.06F WCI  12
FORSYTH          N/A      7  -2  66 CALM      30.11S
HARLOWTON        N/A     29  11  47 W20       30.03S WCI  16
LAUREL           N/A     13  -1  53 SW16      30.05F WCI  -3
$$

REGIONAL REPORTS...DAKOTAS

CITY           SKY/WX    TMP DP  RH WIND       PRES   REMARKS
WILLISTON      CLOUDY    12   2  64 CALM      30.06S
MINOT          CLOUDY    20   7  57 SW14      30.03S WCI   7
DICKINSON      CLOUDY    19   6  57 SW21      30.05S WCI   3
BEACH            N/A     19   7  58 SW13      30.09S WCI   7
CROSBY           N/A      9   1  72 SW23      30.01F WCI -12
TIOGA            N/A      9   3  78 CALM      30.05R
WATFORD CITY     N/A      9   0  66 SW8       30.06S WCI  -4
BISMARCK       SUNNY     -4 -10  75 E5        30.15S
GRAND FORKS    CLOUDY     7   0  73 S10       30.12S WCI  -8
FARGO          CLOUDY    14   7  73 S12       30.19R WCI   0
BUFFALO SD       N/A     18  11  74 W6        30.02F WCI  10
RAPID CITY     CLOUDY    19   6  57 SE5       30.13R
$$

REGIONAL REPORTS...WYOMING/IDAHO/WASHINGTON

CITY           SKY/WX    TMP DP  RH WIND       PRES   REMARKS
GILLETTE       CLOUDY    21  10  62 CALM      30.08F
SHERIDAN       CLOUDY    14  -2  49 SW7       30.09S WCI   4
BUFFALO WY     CLOUDY    31  -2  24 NW5       30.07S
CODY           CLOUDY    23   4  44 NW3       30.10R
YELLOWSTONE LA   N/A    -14 -14 100 CALM      30.16S
IDAHO FALLS    CLOUDY     0  -4  83 N3        30.22S
SALMON         CLOUDY   -17 -22  76 CALM      30.49R
BOISE          LGT SNOW  11   8  88 NW5       30.40S FOG
SPOKANE        CLOUDY     5   2  87 CALM      30.34S FOG
$$

REGIONAL REPORTS...ALBERTA

CITY           SKY/WX    TMP DP  RH WIND       PRES   REMARKS
EDMONTON       CLEAR     30  16  55 W8        29.83R WCI  23
CALGARY        MOCLDY    39  14  35 W22G30    29.85R WCI  29
LETHBRIDGE     PTSUNNY   32  18  55 W31G38    29.91S WCI  17
MEDICINE HAT   PTSUNNY   32  19  59 SW14      29.89S WCI  22
WATERTON GATE    N/A     30   7  37 SW26G38     N/A  WCI  16
MILK RIVER       N/A     30  18  59 W13         N/A  WCI  20
$$

REGIONAL REPORTS...SASKATCHEWAN

CITY           SKY/WX    TMP DP  RH WIND       PRES   REMARKS
SWIFT CURRENT  SUNNY     21  12  68 SW20      29.86S WCI   6
REGINA         PTSUNNY   14   7  73 S5        29.92S
SASKATOON      PTSUNNY   19  12  73 SW12      29.86R WCI   7
CYPRESS HILLS    N/A     30  10  43 SW6         N/A  WCI  24
VAL MARIE        N/A      1  -4  78 N2          N/A
ROCKGLEN         N/A     23  10  58 SW16        N/A  WCI  10
ASSINIBOIA       N/A     27  16  63 SW6         N/A  WCI  20
$$




USA.gov is the U.S. government's official web portal to all federal, state and local government web resources and services.